Wind_Speed
25 27 29 30 31 33 35 37 39 41 41 41 43 45 45 44 43 43 42 41 40 40 38 38 38 37 36 36 35 33 32 31 30 30 30 29 28 27 28 29 29 29 30 29
24 27 28 30 32 34 36 37 39 40 40 41 41 43 43 42 41 40 39 38 36 35 34 34 35 36 37 37 37 36 35 35 35 34 35 35 32 29 30 32 33 33 32 31
26 28 31 34 36 37 38 39 40 40 40 40 40 41 40 39 37 36 34 33 31 29 28 28 30 32 34 36 38 38 38 38 38 38 39 40 37 34 34 35 36 37 35 33
27 29 32 35 37 38 41 42 42 42 42 42 41 40 40 35 34 32 32 31 29 28 27 27 27 29 31 35 38 39 39 39 40 41 43 45 41 38 39 39 39 39 37 34
32 35 37 40 42 44 45 46 47 46 46 46 46 45 44 40 37 35 35 34 32 31 30 29 28 29 31 35 39 40 40 41 42 43 46 49 46 41 43 43 39 37 36 34
30 32 34 37 40 42 44 46 48 48 47 48 45 45 45 46 40 39 38 37 36 35 34 33 32 32 33 35 39 41 42 44 45 45 48 50 49 44 44 45 41 37 35 34
24 23 23 25 29 32 35 36 38 39 40 40 45 44 45 46 43 41 40 40 40 39 38 38 37 36 36 35 38 40 42 44 45 45 46 48 47 47 47 46 44 40 37 34
21 21 21 22 24 25 25 23 22 23 25 29 33 35 38 37 39 39 38 38 38 39 40 39 39 39 37 36 37 38 39 40 41 41 44 44 44 46 49 49 46 43 38 33
21 21 21 23 24 24 20 17 13 8 6 8 13 20 26 29 32 33 32 31 31 33 33 35 36 36 36 34 34 36 36 35 36 36 37 40 42 45 47 48 45 40 35 29
23 22 22 22 23 23 22 19 13 10 8 6 6 5 7 12 16 16 15 14 15 17 20 24 27 28 27 27 28 32 33 31 32 33 35 38 41 43 40 39 35 30 24 17
27 24 21 20 20 21 20 19 17 15 14 12 10 10 8 4 4 5 7 8 7 5 6 10 15 19 21 22 24 27 29 29 28 29 31 33 32 31 28 24 21 18 15 14
31 27 23 20 21 23 22 19 17 16 16 16 15 14 10 5 5 7 10 11 9 8 6 4 3 3 5 8 11 15 19 21 22 22 23 21 19 16 15 13 12 12 12 15
33 31 26 22 22 23 24 22 19 16 15 14 14 11 10 7 5 8 10 10 8 7 7 11 13 13 11 10 9 8 9 10 11 10 8 6 5 5 4 5 6 7 9 13
31 31 29 26 24 24 26 25 23 20 18 17 16 14 14 16 14 11 12 11 9 9 9 10 13 13 13 12 12 12 14 15 14 12 10 9 8 7 5 3 3 7 11 15
29 30 29 27 26 26 28 28 26 25 22 21 21 20 18 16 16 15 16 14 13 11 10 9 12 14 14 15 16 17 16 15 13 11 10 9 7 5 1 3 7 11 14 16
27 27 27 27 25 25 27 28 28 28 25 22 21 20 17 15 14 15 15 15 12 10 8 7 9 12 13 14 15 15 13 12 10 9 8 6 5 3 4 7 9 11 14 16
25 25 26 26 25 24 24 24 24 25 24 21 20 22 21 19 18 17 16 15 12 9 8 9 10 11 11 11 11 10 10 9 8 7 5 5 5 6 8 9 11 13 15 17
24 23 23 24 24 23 22 22 22 23 25 22 20 21 22 22 21 19 18 17 15 14 14 14 15 14 13 12 11 10 9 8 8 7 7 8 9 10 11 13 14 16 18 20
27 24 23 21 21 20 20 20 20 21 22 22 21 21 21 22 22 20 19 17 16 16 15 14 13 12 12 11 11 11 11 10 10 10 10 10 11 12 13 14 15 17 18 19
30 29 25 22 18 17 17 16 17 17 18 19 19 20 21 22 21 18 18 17 15 14 13 12 12 12 12 13 13 13 13 13 12 11 11 11 11 12 14 14 15 16 16 17
31 32 30 25 18 14 14 13 13 14 15 15 17 18 20 19 18 16 16 16 15 14 12 12 12 13 14 14 14 13 13 12 12 11 12 13 14 15 15 15 15 16 16 16
30 32 33 30 23 16 13 11 12 11 11 12 13 15 16 16 16 16 16 16 15 15 14 14 15 15 15 15 14 14 13 12 12 12 14 15 16 16 16 17 17 17 16 15
27 30 31 32 29 23 17 12 11 10 10 11 12 12 12 13 13 14 14 14 15 16 16 15 16 15 15 15 14 14 13 12 13 14 15 17 18 18 18 19 19 19 18 17
24 26 28 30 31 28 22 15 11 10 10 11 11 11 10 10 11 11 11 11 14 16 16 15 15 16 16 16 15 14 13 13 14 15 17 19 20 20 20 20 20 20 20 20
18 21 24 26 28 29 27 20 14 10 9 10 11 11 10 8 8 9 8 8 10 13 14 14 14 15 16 16 15 14 14 13 14 15 17 19 19 20 21 21 22 22 22 21
13 16 19 23 25 27 27 25 20 13 9 7 7 9 10 9 6 6 7 7 8 10 11 12 13 13 14 14 15 14 14 14 14 14 16 17 19 20 21 22 23 24 24 24
Wind_Direction
270 270 270 271 271 271 272 272 271 269 267 266 265 265 265 264 264 264 263 263 264 265 265 265 265 264 264 266 270 272 272 271 269 267 263 259 257 257 259 260 259 257 258 256
277 276 277 276 275 276 276 275 274 273 271 270 268 268 268 267 266 265 265 264 264 264 266 266 266 264 262 260 261 263 265 266 267 267 266 264 261 258 260 263 263 258 256 254
283 284 282 281 280 280 278 276 275 275 275 274 273 272 270 268 267 265 264 263 263 264 266 269 271 269 265 261 258 257 258 261 263 263 265 267 266 264 264 264 264 258 253 251
291 290 288 286 284 282 280 279 278 278 278 279 277 276 273 270 267 265 262 261 261 261 264 271 279 279 269 260 254 252 251 255 260 260 261 264 265 266 267 266 265 260 252 249
298 296 293 291 288 285 283 280 277 276 275 274 275 273 272 269 265 264 263 262 262 263 265 273 281 283 276 263 253 248 245 247 252 257 258 259 261 264 266 264 265 264 256 250
310 306 302 297 294 290 285 281 277 274 271 269 268 267 268 267 264 262 262 264 265 267 270 275 280 284 280 268 256 249 245 244 247 253 257 256 256 259 263 262 261 262 254 250
343 339 331 322 313 305 298 290 283 278 272 267 264 264 264 266 264 262 261 263 265 268 271 276 280 283 279 269 259 252 249 246 248 253 256 255 255 259 263 264 261 259 253 251
358 353 348 342 335 328 318 307 295 284 272 264 263 259 261 263 261 260 258 259 262 266 271 276 280 281 276 268 260 255 253 251 252 256 258 262 262 263 266 268 265 259 253 250
354 349 350 350 351 354 355 350 344 338 316 289 270 263 257 255 258 257 255 254 257 262 267 273 275 273 272 269 261 255 255 255 255 258 263 267 269 270 268 268 261 250 244 246
358 353 351 356 2 5 12 16 24 33 41 40 26 355 294 267 257 250 244 242 249 258 264 265 265 268 271 271 263 254 254 259 262 263 268 271 272 271 265 256 247 237 238 244
12 8 6 8 11 16 21 28 41 52 55 52 43 39 29 38 103 134 156 163 173 201 242 257 260 263 263 260 255 251 251 258 265 266 269 271 266 261 249 236 230 233 240 252
22 21 18 18 20 23 27 35 41 48 49 48 46 41 38 57 91 124 142 144 147 142 114 110 146 195 217 226 234 238 242 248 253 253 255 251 241 232 227 232 240 244 250 256
26 26 26 26 27 28 31 35 38 40 43 46 49 45 41 54 83 119 130 136 134 124 98 86 86 86 90 94 99 118 153 176 192 201 208 204 194 191 201 220 234 243 250 257
29 29 30 32 35 37 36 35 36 36 39 44 48 54 67 71 75 105 123 134 132 124 108 90 75 65 56 55 58 67 81 88 91 95 101 106 111 115 127 150 227 256 263 268
29 31 32 35 37 36 35 35 34 36 43 52 59 68 72 65 66 86 103 120 134 118 104 81 60 52 48 49 50 54 63 73 78 85 93 96 94 94 103 266 269 271 274 275
28 30 31 33 34 34 35 34 33 38 47 63 68 66 66 69 70 80 93 107 121 114 96 65 52 49 53 56 58 56 63 70 75 79 80 74 55 10 318 298 287 280 276 275
25 28 30 31 32 34 35 34 34 39 47 60 64 62 65 72 75 77 81 86 94 96 71 58 56 59 62 63 58 51 49 50 53 52 39 14 345 320 303 291 281 275 273 274
24 25 27 29 31 34 37 43 46 51 53 55 61 65 68 72 73 71 71 73 77 78 76 72 68 65 61 56 51 45 40 35 29 18 1 343 330 319 309 299 289 284 282 281
25 23 23 24 29 33 39 47 54 59 59 56 58 65 68 71 72 70 71 73 76 76 73 68 63 58 52 46 40 34 28 22 14 5 355 346 338 329 322 313 305 297 292 287
29 26 25 24 26 31 36 45 53 59 59 54 56 62 65 65 64 63 65 67 67 66 63 58 51 46 42 41 39 37 33 26 19 12 5 357 349 343 337 332 326 317 308 299
32 30 29 29 32 35 41 49 54 56 58 54 54 59 60 56 53 56 63 65 62 57 51 43 35 31 28 27 28 30 28 23 20 17 11 7 3 360 357 353 347 338 330 320
32 31 30 31 35 39 48 55 60 62 63 60 59 62 60 56 55 60 63 60 53 44 35 29 24 22 22 25 29 30 29 27 25 21 18 16 15 13 10 4 359 354 349 342
30 31 33 34 36 40 48 57 65 69 71 69 67 66 62 59 59 60 59 52 43 35 32 32 31 32 36 38 39 37 34 32 31 30 28 26 25 22 16 9 4 360 356 352
25 28 33 36 38 40 44 53 63 70 72 70 66 64 62 58 56 56 53 47 39 34 37 39 39 43 44 43 41 40 40 40 39 36 33 31 27 22 16 9 3 358 354 349
15 22 30 36 38 39 41 45 52 63 71 65 56 51 48 51 53 51 51 47 39 37 38 40 42 45 44 43 42 44 45 44 39 36 34 31 26 21 15 10 6 3 -0 356
357 12 24 31 35 38 39 40 41 46 59 61 51 42 38 41 43 37 34 32 30 31 34 37 41 44 45 44 43 43 40 36 33 31 30 28 24 21 17 14 12 11 9 5
Height
5877 5876 5874 5872 5871 5869 5867 5865 5863 5861 5861 5861 5859 5857 5858 5859 5859 5860 5861 5861 5861 5862 5863 5864 5865 5866 5867 5867 5866 5867 5868 5869 5869 5870 5869 5869 5868 5869 5869 5869 5869 5869 5870 5871
5872 5869 5868 5865 5863 5861 5858 5856 5853 5850 5850 5849 5848 5847 5847 5848 5849 5849 5850 5850 5851 5852 5853 5854 5855 5856 5858 5859 5859 5860 5861 5862 5862 5862 5862 5862 5862 5862 5862 5862 5862 5862 5863 5865
5867 5864 5860 5857 5854 5851 5847 5845 5842 5841 5839 5838 5837 5837 5837 5838 5838 5839 5840 5841 5842 5844 5845 5845 5846 5848 5849 5850 5851 5852 5853 5854 5855 5855 5854 5854 5854 5855 5855 5855 5855 5855 5855 5857
5860 5856 5852 5847 5844 5841 5837 5834 5832 5830 5829 5827 5827 5827 5826 5828 5829 5830 5831 5833 5835 5837 5838 5839 5839 5839 5840 5841 5842 5843 5845 5847 5847 5847 5847 5847 5847 5847 5847 5847 5847 5847 5848 5850
5852 5848 5844 5839 5833 5829 5825 5822 5819 5818 5816 5816 5815 5815 5816 5819 5820 5821 5822 5824 5826 5829 5830 5831 5831 5831 5832 5832 5833 5833 5835 5837 5838 5838 5838 5838 5838 5839 5838 5838 5839 5840 5842 5843
5845 5839 5834 5828 5821 5816 5810 5807 5804 5802 5802 5802 5803 5803 5803 5805 5809 5811 5813 5815 5817 5819 5821 5822 5822 5823 5823 5823 5824 5825 5826 5827 5829 5830 5830 5831 5831 5832 5832 5830 5831 5833 5834 5836
5837 5832 5826 5819 5812 5804 5798 5793 5789 5787 5787 5788 5786 5790 5788 5793 5796 5799 5803 5805 5807 5809 5811 5812 5813 5814 5814 5814 5815 5817 5818 5819 5820 5821 5821 5821 5822 5823 5824 5824 5825 5826 5827 5828
5836 5830 5823 5816 5808 5799 5791 5784 5780 5777 5775 5774 5773 5776 5777 5780 5782 5786 5790 5793 5796 5798 5800 5802 5803 5804 5805 5806 5806 5807 5809 5811 5813 5813 5813 5811 5812 5814 5815 5815 5817 5818 5819 5820
5835 5828 5821 5814 5805 5797 5788 5780 5775 5771 5768 5767 5767 5768 5769 5770 5771 5775 5779 5783 5786 5789 5791 5793 5794 5795 5796 5797 5798 5799 5801 5803 5804 5805 5805 5805 5806 5806 5806 5806 5808 5809 5811 5812
5833 5827 5820 5813 5805 5797 5789 5781 5775 5771 5769 5768 5767 5767 5766 5764 5765 5768 5771 5776 5780 5783 5785 5786 5787 5787 5788 5788 5789 5790 5793 5795 5796 5798 5799 5798 5798 5798 5798 5799 5800 5802 5803 5804
5832 5825 5819 5812 5806 5799 5792 5786 5779 5775 5771 5769 5768 5770 5766 5764 5764 5766 5770 5774 5778 5781 5783 5782 5782 5782 5781 5781 5781 5782 5785 5788 5789 5791 5792 5792 5792 5792 5793 5794 5795 5796 5798 5800
5832 5826 5819 5814 5808 5801 5795 5789 5784 5780 5776 5773 5771 5774 5768 5767 5767 5768 5770 5773 5778 5780 5781 5780 5779 5778 5777 5777 5776 5777 5779 5782 5784 5785 5786 5787 5787 5788 5789 5791 5791 5793 5795 5797
5835 5828 5822 5816 5813 5807 5800 5793 5788 5784 5780 5777 5775 5776 5770 5770 5770 5771 5772 5775 5778 5780 5781 5780 5779 5778 5777 5776 5775 5775 5776 5778 5780 5781 5783 5784 5785 5786 5787 5788 5789 5790 5792 5793
5838 5832 5826 5821 5815 5810 5804 5798 5793 5788 5784 5780 5777 5776 5774 5774 5774 5774 5776 5778 5780 5781 5781 5781 5781 5780 5779 5779 5778 5777 5777 5778 5779 5781 5782 5783 5784 5784 5785 5786 5787 5788 5788 5788
5841 5835 5829 5824 5819 5814 5808 5803 5798 5793 5789 5785 5783 5781 5780 5780 5779 5778 5779 5780 5782 5783 5783 5784 5784 5783 5782 5782 5781 5780 5780 5781 5782 5783 5783 5783 5783 5783 5783 5784 5784 5783 5783 5782
5844 5839 5833 5828 5823 5819 5813 5808 5804 5799 5795 5792 5790 5788 5785 5784 5783 5783 5783 5783 5785 5785 5787 5787 5787 5787 5786 5785 5785 5784 5784 5784 5784 5783 5783 5783 5783 5783 5783 5782 5781 5781 5780 5779
5847 5842 5837 5832 5827 5823 5819 5814 5810 5806 5802 5799 5796 5795 5791 5789 5789 5788 5788 5788 5789 5790 5791 5791 5791 5790 5790 5789 5788 5787 5786 5785 5785 5784 5784 5784 5784 5783 5782 5781 5780 5779 5777 5775
5849 5845 5841 5836 5832 5827 5826 5819 5816 5812 5809 5806 5804 5801 5798 5796 5796 5795 5795 5795 5795 5795 5795 5795 5794 5793 5793 5792 5790 5789 5788 5787 5786 5786 5785 5784 5783 5782 5780 5779 5777 5775 5772 5770
5851 5847 5843 5839 5835 5831 5828 5824 5821 5818 5815 5814 5811 5809 5806 5805 5803 5803 5802 5801 5800 5800 5799 5798 5797 5796 5795 5794 5792 5791 5789 5788 5787 5786 5785 5784 5782 5780 5778 5776 5773 5770 5767 5765
5855 5850 5845 5841 5837 5834 5832 5828 5825 5824 5821 5819 5817 5815 5813 5811 5810 5810 5808 5806 5805 5804 5803 5802 5800 5799 5797 5795 5793 5792 5791 5789 5788 5786 5785 5783 5781 5778 5775 5772 5769 5766 5763 5760
5859 5853 5847 5842 5838 5836 5833 5830 5829 5828 5827 5824 5822 5820 5818 5816 5816 5815 5812 5811 5810 5809 5807 5805 5803 5801 5799 5797 5795 5793 5792 5790 5789 5788 5786 5783 5780 5776 5772 5769 5766 5763 5759 5756
5863 5857 5851 5845 5840 5840 5834 5832 5832 5831 5828 5827 5826 5824 5822 5821 5820 5818 5817 5815 5814 5812 5810 5807 5805 5802 5800 5798 5796 5794 5793 5792 5790 5788 5786 5782 5778 5775 5771 5768 5764 5761 5756 5752
5866 5862 5856 5851 5847 5841 5837 5835 5833 5832 5831 5830 5829 5827 5826 5825 5824 5822 5820 5819 5817 5815 5812 5810 5807 5805 5803 5801 5799 5797 5796 5794 5792 5789 5786 5782 5778 5774 5771 5767 5763 5758 5754 5749
5869 5865 5860 5855 5850 5845 5840 5837 5835 5834 5833 5832 5831 5830 5829 5828 5827 5826 5824 5822 5820 5818 5815 5813 5810 5808 5806 5804 5802 5800 5798 5796 5794 5790 5786 5782 5778 5774 5771 5766 5762 5757 5752 5747
5871 5868 5864 5859 5855 5850 5845 5841 5838 5836 5835 5834 5833 5832 5830 5829 5829 5828 5826 5824 5822 5820 5818 5815 5813 5810 5808 5806 5805 5803 5800 5798 5795 5792 5788 5784 5780 5776 5772 5767 5762 5757 5751 5746
5872 5870 5867 5863 5859 5855 5851 5846 5842 5839 5837 5835 5834 5833 5832 5830 5829 5827 5826 5825 5823 5822 5820 5817 5815 5812 5810 5808 5806 5804 5802 5799 5796 5793 5790 5786 5782 5778 5774 5769 5764 5758 5753 5746